Find Local Weather

World > North America > United States > Ohio

Millbury, Ohio Regional Weather

Lat: 41.56N, Lon: 83.43W
Wx Zone: OHZ006
Feedback
Expires:201804230100;;353706
ASUS41 KCLE 230012
RWRCLE
OHIO REGIONAL WEATHER ROUNDUP
NATIONAL WEATHER SERVICE WILMINGTON, OH
800 PM EDT SUN APR 22 2018

NOTE: "FAIR" INDICATES FEW OR NO CLOUDS BELOW 12,000 FEET WITH NO
SIGNIFICANT WEATHER AND/OR OBSTRUCTIONS TO VISIBILITY.


OHZ001>008-015>018-024>027-034-035-043-044-230100-
   NORTHWEST OHIO
  
CITY           SKY/WX    TMP DP  RH WIND       PRES   REMARKS
DEFIANCE       FAIR      54  22  28 E9        30.28F                  
FINDLAY        FAIR      55  20  25 NE17G23   30.26S                  
TOLEDO EXPRESS FAIR      54  21  27 E17G24    30.30S                  
TOLEDO EXEC    FAIR      51  25  36 E8        30.31F                  
LIMA           FAIR      54  28  36 NE14      30.24S                  
$$
 

SKY/WX - Weather  TMP - Temperature  DP - Dewpoint  RH - Relative Humidity
WIND - Wind Direction/Speed PRES - Barometric Pressure